^^
Datos históricos de la estación: Murcia-Puente Tocinos
 
Diario Informe para Mayo 24, 2017 Unidades:  Métrico    Inglés   Ambas
« Anterior Día
Siguiente Día »
Diario Semanal Mensual Anual Configurable
  Actual: Máximo: Mínimo: Media:
Temperatura: 16.9 °C 19.9 °C 16.9 °C 18.5 °C
Punto de rocio: 10.9 °C 13.3 °C 10.9 °C 12.1 °C
Humedad: 68% 69% 62% 66%
Velocidad viento: 2.9km/h 5.8km/h 0.0km/h 2.4km/h
Racha viento: 3.7km/h 7.4km/h - -
VientoESE - - SO
Presión: 1018.5 hPa 1019.2 hPa 1018.2 hPa -
Precipitación: 0.0 mm      
Historical Graphs
 
 
Tabla de datos para Mayo 24, 2017
Hora Temperatura Punto de rocio Presión Viento Velocidad viento Racha viento Humedad Intensidad lluvia(por hora) Nubes
00:02 19.9 °C 13.3 °C 1018.8 hPa ENE 2.3 km/h 3.7 km/h 66% 0.0 mm CLR
00:07 19.9 °C 13.3 °C 1018.8 hPa NNE 2.9 km/h 7.4 km/h 66% 0.0 mm CLR
00:12 19.9 °C 13.3 °C 1018.8 hPa North 2.9 km/h 5.6 km/h 66% 0.0 mm CLR
00:17 19.8 °C 13.3 °C 1018.8 hPa NW 3.2 km/h 5.6 km/h 66% 0.0 mm CLR
00:22 19.8 °C 13.3 °C 1018.8 hPa NW 3.2 km/h 7.4 km/h 66% 0.0 mm CLR
00:28 19.7 °C 12.9 °C 1018.8 hPa NW 3.2 km/h 4.7 km/h 65% 0.0 mm CLR
00:33 19.7 °C 12.9 °C 1018.8 hPa NW 3.2 km/h 3.7 km/h 65% 0.0 mm CLR
00:38 19.7 °C 13.2 °C 1018.8 hPa NW 2.9 km/h 5.6 km/h 66% 0.0 mm CLR
00:48 19.7 °C 12.9 °C 1018.8 hPa NW 2.9 km/h 3.7 km/h 65% 0.0 mm CLR
00:53 19.6 °C 12.8 °C 1019.2 hPa NW 2.9 km/h 3.7 km/h 65% 0.0 mm CLR
00:58 19.6 °C 12.8 °C 1019.2 hPa NW 2.3 km/h 3.7 km/h 65% 0.0 mm CLR
01:03 19.4 °C 12.7 °C 1019.2 hPa NW 2.3 km/h 2.3 km/h 65% 0.0 mm CLR
01:08 19.3 °C 12.3 °C 1019.2 hPa NW 2.9 km/h 3.7 km/h 64% 0.0 mm CLR
01:13 19.3 °C 12.3 °C 1019.2 hPa NW 2.9 km/h 3.7 km/h 64% 0.0 mm CLR
01:18 19.2 °C 12.2 °C 1019.2 hPa NW 2.3 km/h 3.7 km/h 64% 0.0 mm CLR
01:23 19.2 °C 12.4 °C 1019.2 hPa NW 2.3 km/h 3.7 km/h 65% 0.0 mm CLR
01:28 19.2 °C 12.2 °C 1019.2 hPa NW 2.3 km/h 3.7 km/h 64% 0.0 mm CLR
01:33 19.1 °C 12.4 °C 1019.2 hPa NW 2.3 km/h 2.9 km/h 65% 0.0 mm CLR
01:38 19.1 °C 12.4 °C 1018.8 hPa NW 2.3 km/h 3.7 km/h 65% 0.0 mm CLR
01:43 19.1 °C 12.4 °C 1018.8 hPa NW 2.3 km/h 3.7 km/h 65% 0.0 mm CLR
01:48 19.0 °C 12.3 °C 1018.8 hPa Calm   3.7 km/h 65% 0.0 mm
01:53 19.0 °C 12.5 °C 1018.8 hPa Calm   3.7 km/h 66% 0.0 mm
01:58 19.0 °C 12.7 °C 1018.8 hPa NW 2.9 km/h 3.7 km/h 67% 0.0 mm
02:03 19.0 °C 12.7 °C 1018.8 hPa NW 2.9 km/h 3.7 km/h 67% 0.0 mm
02:08 19.1 °C 13.1 °C 1018.8 hPa Calm   3.7 km/h 68% 0.0 mm
02:13 19.1 °C 13.1 °C 1018.8 hPa Calm   3.7 km/h 68% 0.0 mm
02:18 19.0 °C 12.5 °C 1018.8 hPa NW 2.3 km/h 5.6 km/h 66% 0.0 mm
02:23 18.9 °C 12.4 °C 1018.8 hPa NW 2.3 km/h 3.7 km/h 66% 0.0 mm
02:28 18.8 °C 12.6 °C 1018.8 hPa NW 2.3 km/h 3.7 km/h 67% 0.0 mm
02:33 18.7 °C 12.4 °C 1018.8 hPa NW 2.3 km/h   67% 0.0 mm
02:38 18.7 °C 12.4 °C 1018.8 hPa Calm   3.7 km/h 67% 0.0 mm
02:43 18.6 °C 12.3 °C 1018.8 hPa Calm   3.7 km/h 67% 0.0 mm
02:48 18.5 °C 12.3 °C 1018.8 hPa NW 2.9 km/h 2.9 km/h 67% 0.0 mm
02:53 18.5 °C 12.5 °C 1018.8 hPa NW 2.9 km/h 3.7 km/h 68% 0.0 mm
02:58 18.4 °C 12.4 °C 1018.8 hPa Calm   5.8 km/h 68% 0.0 mm
03:03 18.5 °C 12.0 °C 1018.8 hPa Calm   7.4 km/h 66% 0.0 mm
03:08 18.6 °C 11.7 °C 1018.5 hPa South 4.7 km/h 5.6 km/h 64% 0.0 mm
03:13 18.7 °C 11.5 °C 1018.5 hPa South 4.7 km/h 5.8 km/h 63% 0.0 mm
03:18 18.7 °C 11.5 °C 1018.5 hPa SW 3.9 km/h 7.4 km/h 63% 0.0 mm CLR
03:23 18.7 °C 11.5 °C 1018.5 hPa WSW 3.9 km/h 5.6 km/h 63% 0.0 mm CLR
03:28 18.7 °C 11.5 °C 1018.5 hPa WSW 3.9 km/h 3.9 km/h 63% 0.0 mm CLR
03:33 18.7 °C 11.3 °C 1018.5 hPa WSW 3.9 km/h 5.6 km/h 62% 0.0 mm CLR
03:38 18.7 °C 11.7 °C 1018.5 hPa WSW 2.9 km/h 3.9 km/h 64% 0.0 mm CLR
03:43 18.6 °C 11.9 °C 1018.5 hPa WSW 2.9 km/h 3.7 km/h 65% 0.0 mm CLR
03:48 18.4 °C 11.9 °C 1018.5 hPa WSW 2.3 km/h 3.7 km/h 66% 0.0 mm CLR
03:53 18.2 °C 11.9 °C 1018.5 hPa East 2.3 km/h 2.3 km/h 67% 0.0 mm CLR
03:58 18.1 °C 12.1 °C 1018.5 hPa East 2.3 km/h 2.3 km/h 68% 0.0 mm CLR
04:03 17.9 °C 11.9 °C 1018.5 hPa East 2.3 km/h   68% 0.0 mm CLR
04:08 17.9 °C 11.9 °C 1018.5 hPa Calm   3.7 km/h 68% 0.0 mm CLR
04:13 17.9 °C 11.9 °C 1018.5 hPa Calm   3.7 km/h 68% 0.0 mm CLR
04:18 17.9 °C 11.9 °C 1018.5 hPa Calm   2.9 km/h 68% 0.0 mm CLR
04:23 17.9 °C 12.1 °C 1018.2 hPa Calm     69% 0.0 mm CLR
04:28 17.8 °C 12.1 °C 1018.2 hPa Calm     69% 0.0 mm CLR
04:33 17.8 °C 12.1 °C 1018.2 hPa Calm     69% 0.0 mm CLR
04:38 17.7 °C 11.9 °C 1018.5 hPa Calm     69% 0.0 mm CLR
04:43 17.7 °C 11.9 °C 1018.5 hPa Calm   3.7 km/h 69% 0.0 mm CLR
04:48 17.7 °C 11.7 °C 1018.5 hPa SE 2.3 km/h 3.9 km/h 68% 0.0 mm CLR
04:53 17.7 °C 11.5 °C 1018.5 hPa SSE 2.3 km/h 5.6 km/h 67% 0.0 mm CLR
04:58 17.6 °C 11.2 °C 1018.5 hPa South 3.9 km/h 7.4 km/h 66% 0.0 mm CLR
05:03 17.5 °C 11.3 °C 1018.5 hPa SSE 3.9 km/h 7.4 km/h 67% 0.0 mm CLR
05:08 17.4 °C 11.2 °C 1018.5 hPa SE 5.8 km/h 5.8 km/h 67% 0.0 mm CLR
05:13 17.4 °C 11.2 °C 1018.5 hPa South 5.8 km/h 7.4 km/h 67% 0.0 mm CLR
05:18 17.5 °C 11.3 °C 1018.5 hPa South 4.7 km/h 7.4 km/h 67% 0.0 mm CLR
05:23 17.6 °C 11.4 °C 1018.5 hPa SSE 4.7 km/h 4.7 km/h 67% 0.0 mm CLR
05:28 17.6 °C 11.4 °C 1018.5 hPa SSE 3.2 km/h 3.9 km/h 67% 0.0 mm CLR
05:33 17.6 °C 11.2 °C 1018.5 hPa SW 3.2 km/h 5.6 km/h 66% 0.0 mm CLR
05:38 17.7 °C 11.3 °C 1018.5 hPa SW 2.9 km/h 3.7 km/h 66% 0.0 mm CLR
05:43 17.6 °C 11.2 °C 1018.5 hPa West 2.9 km/h 3.9 km/h 66% 0.0 mm CLR
05:48 17.6 °C 11.4 °C 1018.5 hPa East 2.9 km/h 5.6 km/h 67% 0.0 mm CLR
05:53 17.2 °C 11.2 °C 1018.5 hPa ESE 2.9 km/h 3.7 km/h 68% 0.0 mm CLR
05:58 17.0 °C 11.1 °C 1018.5 hPa ESE 2.9 km/h 3.7 km/h 68% 0.0 mm CLR
06:03 16.9 °C 10.9 °C 1018.5 hPa ESE 2.9 km/h 3.7 km/h 68% 0.0 mm CLR
Murcia-Puente Tocinos, España
Compliments of Weather Underground - 1.5 mb

La estación de MeteoMurcia.com, publica sus datos en los siguientes proyectos:

Meteoclimatic www.awekas.at

W3Counter
Web Analytics